World > North America > United States > New York

Hourly Tyrone, NY Regional Weather

Feedback E-mail the Weather

Latest News

Tyrone, NY Weather Maps

°F °C°F °C
Tyrone Weather Map
UTC Time: 5/23/2022, 01:30
Your Time:

Tyrone, NY Regional Weather

Expires:202205230200;;417895
ASUS41 KBGM 230110
RWRBGM

REGIONAL WEATHER ROUNDUP
NATIONAL WEATHER SERVICE BINGHAMTON NY
900 PM EDT SUN MAY 22 2022

Note: "fair" indicates few or no clouds below 12,000 feet with no
significant weather and/or obstructions to visibility.

* = Station(s) that does not report precipitation, such as rain, 
snow, etc, also no thunder or fog.


NYZ009-015>018-022>025-036-037-044>046-055>057-062-230200
...Central New York...
  
CITY           SKY/WX    TMP DP  RH WIND       PRES   REMARKS
Binghamton     MOCLDY    54  51  90 N13G22    30.15R                  
Cortland       CLOUDY    54  50  87 NW3       30.18R                  
Dansville      CLEAR     56  48  74 CALM      30.22R                  
Elmira         PTCLDY    58  50  75 N3        30.16R                  
Endicott       CLOUDY    57  55  94 CALM      30.16R                  
Ithaca         PTCLDY    54  52  93 NW10      30.18R                  
Hamilton       CLOUDY    54  50  87 NW14      30.17R                  
Monticello     LGT RAIN  64  62  93 W9        30.09R                  
Norwich        CLOUDY    57  52  82 NW12G18   30.18R                  
Oneonta        CLOUDY    55  54  94 W6        30.14R                  
Penn Yan       CLEAR     55  46  71 NW7       30.19R                  
Rome           CLOUDY    56  52  86 W9        30.17R                  
Seneca Falls   CLEAR     54  48  82 NW9       30.20R                  
Sidney         MOCLDY    59  55  88 NW6       30.15R                  
Skaneateles    CLOUDY    54  54 100 VRB6      30.19R                  
Syracuse       PTCLDY    53  49  86 W8        30.18R                  
$$
 

SKY/WX - Weather  TMP - Temperature  DP - Dew Point  RH - Humidity
WIND - Wind Direction/Speed PRES - Barometric Pressure VSB - Visibility
WCI - Wind Chill Index E13G22 Wind - East Wind 13 mph/Gusts of 22 mph

Trending Headlines

Tyrone Radar Loop



Tyrone Quick Facts


National Two Day Weather Forecast


E-mail the Tyrone Weather Forecast

Voice your opinion or tell us about page issues...